| time (UTC) | temp F | wind direction | speed knots | gust knots | rain 1hr in | rain 24hr in | rain mn in | humidity % | barometer mb |
| 20260505015002 | 77 | 189 | 3.5 | 11.3 | 0.00 | 0.00 | 0.00 | 65 | 1005.6 |
| 20260505014506 | 77 | 130 | 0.9 | 9.6 | 0.00 | 0.00 | 0.00 | 64 | 1005.6 |
| 20260505014002 | 77 | 216 | 3.5 | 10.4 | 0.00 | 0.00 | 0.00 | 64 | 1005.6 |
| 20260505013503 | 77 | 190 | 2.6 | 13.0 | 0.00 | 0.00 | 0.00 | 64 | 1005.6 |
| 20260505013006 | 77 | 244 | 4.3 | 13.0 | 0.00 | 0.00 | 0.00 | 64 | 1005.6 |
| 20260505012502 | 77 | 193 | 4.3 | 13.9 | 0.00 | 0.00 | 0.00 | 64 | 1005.5 |
| 20260505011506 | 78 | 184 | 4.3 | 13.9 | 0.00 | 0.00 | 0.00 | 63 | 1005.6 |
| 20260505011003 | 78 | 196 | 5.2 | 13.9 | 0.00 | 0.00 | 0.00 | 63 | 1005.6 |
| 20260505010502 | 78 | 214 | 2.6 | 13.9 | 0.00 | 0.00 | 0.00 | 62 | 1005.6 |
| 20260505005503 | 78 | 198 | 5.2 | 12.2 | 0.00 | 0.00 | 0.00 | 62 | 1005.6 |
| 20260505005004 | 78 | 171 | 3.5 | 17.4 | 0.00 | 0.00 | 0.00 | 62 | 1005.6 |
| 20260505004505 | 78 | 212 | 6.1 | 17.4 | 0.00 | 0.00 | 0.00 | 62 | 1005.5 |
| 20260505004002 | 78 | 210 | 2.6 | 10.4 | 0.00 | 0.00 | 0.00 | 62 | 1005.6 |
| 20260505003508 | 78 | 212 | 3.5 | 10.4 | 0.00 | 0.00 | 0.00 | 62 | 1005.6 |
| 20260505003008 | 79 | 222 | 2.6 | 14.8 | 0.00 | 0.00 | 0.00 | 62 | 1005.6 |
| 20260505002502 | 79 | 254 | 5.2 | 14.8 | 0.00 | 0.00 | 0.00 | 61 | 1005.7 |
| 20260505002003 | 79 | 196 | 5.2 | 14.8 | 0.00 | 0.00 | 0.00 | 61 | 1005.7 |
| 20260505001506 | 79 | 202 | 3.5 | 16.5 | 0.00 | 0.00 | 0.00 | 61 | 1005.7 |
| 20260505001004 | 79 | 171 | 5.2 | 15.6 | 0.00 | 0.00 | 0.00 | 60 | 1005.9 |
| 20260505000503 | 79 | 286 | 4.3 | 13.9 | 0.00 | 0.00 | 0.00 | 60 | 1005.9 |
| 20260505000007 | 80 | 176 | 5.2 | 13.9 | 0.00 | 0.00 | 0.00 | 60 | 1005.8 |
| 20260504235502 | 80 | 194 | 6.1 | 13.0 | 0.00 | 0.00 | 0.00 | 60 | 1005.8 |
| 20260504235001 | 80 | 170 | 6.1 | 13.0 | 0.00 | 0.00 | 0.00 | 60 | 1005.7 |
| 20260504234001 | 80 | 208 | 6.1 | 15.6 | 0.00 | 0.00 | 0.00 | 59 | 1005.8 |
| 20260504233502 | 80 | 175 | 6.1 | 15.6 | 0.00 | 0.00 | 0.00 | 59 | 1005.9 |
| 20260504232503 | 80 | 199 | 4.3 | 16.5 | 0.00 | 0.00 | 0.00 | 59 | 1005.9 |
| 20260504232001 | 80 | 159 | 5.2 | 15.6 | 0.00 | 0.00 | 0.00 | 59 | 1005.9 |
| 20260504231505 | 80 | 159 | 3.5 | 13.0 | 0.00 | 0.00 | 0.00 | 59 | 1005.8 |
| 20260504231003 | 81 | 232 | 2.6 | 15.6 | 0.00 | 0.00 | 0.00 | 58 | 1005.9 |
| 20260504230501 | 81 | 165 | 3.5 | 20.0 | 0.00 | 0.00 | 0.00 | 58 | 1006.0 |
| 20260504230011 | 81 | 234 | 4.3 | 13.0 | 0.00 | 0.00 | 0.00 | 57 | 1006.2 |
| 20260504225502 | 82 | 202 | 7.0 | 13.0 | 0.00 | 0.00 | 0.00 | 57 | 1006.2 |
| 20260504225002 | 82 | 230 | 6.1 | 13.0 | 0.00 | 0.00 | 0.00 | 57 | 1006.2 |
| 20260504224002 | 82 | 66 | 3.5 | 12.2 | 0.00 | 0.00 | 0.00 | 57 | 1006.2 |
| 20260504223005 | 82 | 233 | 1.7 | 13.9 | 0.00 | 0.00 | 0.00 | 57 | 1006.3 |
| 20260504222001 | 82 | 196 | 6.1 | 13.0 | 0.00 | 0.00 | 0.00 | 56 | 1006.3 |
| 20260504221506 | 82 | 240 | 3.5 | 18.2 | 0.00 | 0.00 | 0.00 | 57 | 1006.3 |
| 20260504221001 | 82 | 144 | 4.3 | 18.2 | 0.00 | 0.00 | 0.00 | 56 | 1006.2 |
| 20260504220501 | 82 | 148 | 3.5 | 13.0 | 0.00 | 0.00 | 0.00 | 56 | 1006.3 |
| 20260504220013 | 82 | 189 | 4.3 | 15.6 | 0.00 | 0.00 | 0.00 | 57 | 1006.3 |
| 20260504215501 | 82 | 209 | 4.3 | 15.6 | 0.00 | 0.00 | 0.00 | 57 | 1006.4 |
| 20260504215001 | 82 | 140 | 5.2 | 15.6 | 0.00 | 0.00 | 0.00 | 56 | 1006.6 |
| 20260504214511 | 82 | 168 | 5.2 | 15.6 | 0.00 | 0.00 | 0.00 | 55 | 1006.7 |
| 20260504214001 | 82 | 175 | 6.1 | 13.0 | 0.00 | 0.00 | 0.00 | 55 | 1006.7 |
| 20260504213502 | 82 | 161 | 3.5 | 12.2 | 0.00 | 0.00 | 0.00 | 56 | 1006.9 |
| 20260504213008 | 82 | 176 | 3.5 | 9.6 | 0.00 | 0.00 | 0.00 | 57 | 1007.2 |
| 20260504211519 | 82 | 173 | 6.1 | 14.8 | 0.00 | 0.00 | 0.00 | 56 | 1007.0 |
| 20260504211002 | 82 | 171 | 5.2 | 13.9 | 0.00 | 0.00 | 0.00 | 56 | 1007.5 |
| 20260504210502 | 82 | 240 | 4.3 | 13.9 | 0.00 | 0.00 | 0.00 | 56 | 1007.5 |
| 20260504210007 | 82 | 238 | 4.3 | 13.0 | 0.00 | 0.00 | 0.00 | 56 | 1007.6 |
| 20260504205501 | 82 | 206 | 4.3 | 12.2 | 0.00 | 0.00 | 0.00 | 56 | 1007.7 |
| 20260504205001 | 82 | 209 | 4.3 | 16.5 | 0.00 | 0.00 | 0.00 | 56 | 1007.7 |
| 20260504204505 | 82 | 229 | 5.2 | 16.5 | 0.00 | 0.00 | 0.00 | 54 | 1007.8 |
| 20260504204001 | 82 | 246 | 4.3 | 13.0 | 0.00 | 0.00 | 0.00 | 56 | 1008.0 |
| 20260504203507 | 81 | 205 | 5.2 | 15.6 | 0.00 | 0.00 | 0.00 | 56 | 1008.1 |
| 20260504203007 | 82 | 215 | 5.2 | 15.6 | 0.00 | 0.00 | 0.00 | 54 | 1008.2 |
| 20260504202501 | 81 | 261 | 5.2 | 14.8 | 0.00 | 0.00 | 0.00 | 55 | 1008.1 |
| 20260504202005 | 81 | 171 | 3.5 | 13.0 | 0.00 | 0.00 | 0.00 | 55 | 1008.2 |
| 20260504201520 | 82 | 175 | 2.6 | 15.6 | 0.00 | 0.00 | 0.00 | 55 | 1008.4 |
| 20260504201001 | 81 | 174 | 3.5 | 13.9 | 0.00 | 0.00 | 0.00 | 55 | 1008.6 |
| 20260504200502 | 81 | 257 | 4.3 | 13.9 | 0.00 | 0.00 | 0.00 | 55 | 1008.8 |
| 20260504195006 | 81 | 236 | 6.1 | 11.3 | 0.00 | 0.00 | 0.00 | 54 | 1009.1 |
| 20260504194000 | 81 | 234 | 4.3 | 14.8 | 0.00 | 0.00 | 0.00 | 54 | 1009.0 |
| 20260504193500 | 81 | 190 | 3.5 | 15.6 | 0.00 | 0.00 | 0.00 | 56 | 1009.3 |
| 20260504193004 | 81 | 196 | 5.2 | 15.6 | 0.00 | 0.00 | 0.00 | 54 | 1009.3 |
| 20260504192001 | 80 | 170 | 5.2 | 14.8 | 0.00 | 0.00 | 0.00 | 55 | 1009.4 |
| 20260504191505 | 80 | 181 | 7.0 | 14.8 | 0.00 | 0.00 | 0.00 | 54 | 1009.5 |
| 20260504190005 | 79 | 195 | 2.6 | 15.6 | 0.00 | 0.00 | 0.00 | 57 | 1009.9 |
| 20260504185505 | 79 | 233 | 6.1 | 15.6 | 0.00 | 0.00 | 0.00 | 55 | 1010.0 |
| 20260504185002 | 79 | 209 | 6.1 | 15.6 | 0.00 | 0.00 | 0.00 | 55 | 1010.0 |
| 20260504184512 | 79 | 138 | 2.6 | 13.9 | 0.00 | 0.00 | 0.00 | 56 | 1010.0 |
| 20260504184001 | 79 | 219 | 5.2 | 14.8 | 0.00 | 0.00 | 0.00 | 55 | 1010.1 |
| 20260504183504 | 79 | 194 | 7.0 | 14.8 | 0.00 | 0.00 | 0.00 | 55 | 1010.1 |
| 20260504183005 | 79 | 201 | 2.6 | 14.8 | 0.00 | 0.00 | 0.00 | 57 | 1010.3 |
| 20260504182504 | 78 | 196 | 5.2 | 14.8 | 0.00 | 0.00 | 0.00 | 55 | 1010.4 |
| 20260504181002 | 78 | 226 | 4.3 | 12.2 | 0.00 | 0.00 | 0.00 | 56 | 1010.6 |
| 20260504175501 | 78 | 227 | 2.6 | 16.5 | 0.00 | 0.00 | 0.00 | 55 | 1010.8 |
| 20260504175002 | 78 | 119 | 5.2 | 16.5 | 0.00 | 0.00 | 0.00 | 55 | 1010.6 |
| 20260504174509 | 78 | 197 | 7.0 | 13.9 | 0.00 | 0.00 | 0.00 | 56 | 1010.6 |
| 20260504174002 | 78 | 164 | 4.3 | 19.1 | 0.00 | 0.00 | 0.00 | 57 | 1010.9 |
| 20260504173500 | 77 | 244 | 6.1 | 19.1 | 0.00 | 0.00 | 0.00 | 56 | 1011.1 |
| 20260504173004 | 77 | 182 | 7.0 | 13.0 | 0.00 | 0.00 | 0.00 | 56 | 1011.2 |
| 20260504172500 | 77 | 225 | 4.3 | 15.6 | 0.00 | 0.00 | 0.00 | 57 | 1011.3 |
| 20260504172001 | 76 | 217 | 7.0 | 15.6 | 0.00 | 0.00 | 0.00 | 56 | 1011.3 |
| 20260504171506 | 76 | 219 | 5.2 | 13.9 | 0.00 | 0.00 | 0.00 | 56 | 1011.4 |
| 20260504171000 | 76 | 186 | 7.0 | 13.9 | 0.00 | 0.00 | 0.00 | 56 | 1011.4 |
| 20260504170503 | 76 | 210 | 5.2 | 16.5 | 0.00 | 0.00 | 0.00 | 56 | 1011.4 |
| 20260504151000 | 71 | 226 | 4.3 | 18.2 | 0.00 | 0.00 | 0.00 | 65 | 1012.7 |
| 20260504150501 | 70 | 161 | 5.2 | 18.2 | 0.00 | 0.00 | 0.00 | 65 | 1012.9 |
| 20260504140500 | 67 | 142 | 5.2 | 15.6 | 0.00 | 0.00 | 0.00 | 69 | 1013.0 |
| 20260504130500 | 65 | 193 | 1.7 | 8.7 | 0.00 | 0.00 | 0.00 | 72 | 1013.3 |
| 20260504110459 | 63 | 190 | 0.9 | 5.2 | 0.00 | 0.00 | 0.00 | 72 | 1012.8 |
| 20260504100500 | 65 | 220 | 0.9 | 7.8 | 0.00 | 0.00 | 0.00 | 66 | 1013.2 |
| 20260504081958 | 67 | 163 | 1.7 | 8.7 | 0.00 | 0.00 | 0.00 | 58 | 1013.5 |
| 20260504081505 | 67 | 153 | 2.6 | 8.7 | 0.00 | 0.00 | 0.00 | 58 | 1013.5 |
| 20260504080958 | 67 | 210 | 1.7 | 7.8 | 0.00 | 0.00 | 0.00 | 56 | 1013.7 |
| 20260504080458 | 67 | 247 | 2.6 | 7.8 | 0.00 | 0.00 | 0.00 | 56 | 1013.8 |
| 20260504050504 | 69 | 209 | 0.0 | 3.5 | 0.00 | 0.00 | 0.00 | 53 | 1015.7 |
| 20260504050012 | 69 | 209 | 0.9 | 3.5 | 0.00 | 0.00 | 0.00 | 53 | 1015.7 |
| 20260504045503 | 69 | 209 | 0.0 | 2.6 | 0.00 | 0.00 | 0.00 | 53 | 1015.7 |
| 20260504045003 | 69 | 209 | 0.0 | 2.6 | 0.00 | 0.00 | 0.00 | 52 | 1015.8 |
| 20260504044507 | 69 | 209 | 0.0 | 1.7 | 0.00 | 0.00 | 0.00 | 52 | 1015.8 |
| 20260504043503 | 70 | 209 | 0.0 | 3.5 | 0.00 | 0.00 | 0.00 | 51 | 1015.9 |
| 20260504042503 | 70 | 208 | 0.0 | 6.1 | 0.00 | 0.00 | 0.00 | 51 | 1016.0 |
| 20260504042003 | 70 | 208 | 0.9 | 7.0 | 0.00 | 0.00 | 0.00 | 51 | 1015.9 |
| 20260504041507 | 70 | 198 | 0.9 | 3.5 | 0.00 | 0.00 | 0.00 | 51 | 1016.0 |
| 20260504041004 | 70 | 198 | 0.9 | 4.3 | 0.00 | 0.00 | 0.00 | 50 | 1016.0 |
| 20260504040008 | 71 | 194 | 0.9 | 6.1 | 0.00 | 0.00 | 0.00 | 50 | 1015.9 |
| 20260504035504 | 71 | 161 | 0.9 | 6.1 | 0.00 | 0.00 | 0.00 | 50 | 1015.9 |
| 20260504035003 | 71 | 192 | 0.9 | 5.2 | 0.00 | 0.00 | 0.00 | 50 | 1015.9 |
| 20260504034506 | 71 | 192 | 0.9 | 5.2 | 0.00 | 0.00 | 0.00 | 49 | 1015.9 |
| 20260504034003 | 71 | 204 | 0.0 | 3.5 | 0.00 | 0.00 | 0.00 | 49 | 1015.9 |
| 20260504033503 | 71 | 204 | 0.9 | 3.5 | 0.00 | 0.00 | 0.00 | 49 | 1015.9 |
| 20260504033007 | 71 | 203 | 0.0 | 4.3 | 0.00 | 0.00 | 0.00 | 48 | 1015.8 |
| 20260504032002 | 72 | 198 | 0.9 | 4.3 | 0.00 | 0.00 | 0.00 | 47 | 1015.9 |
| 20260504031521 | 72 | 187 | 0.9 | 5.2 | 0.00 | 0.00 | 0.00 | 46 | 1015.8 |
| 20260504031003 | 72 | 186 | 0.0 | 5.2 | 0.00 | 0.00 | 0.00 | 45 | 1015.8 |
| 20260504030502 | 72 | 177 | 1.7 | 4.3 | 0.00 | 0.00 | 0.00 | 45 | 1015.8 |
| 20260504030010 | 72 | 205 | 0.9 | 4.3 | 0.00 | 0.00 | 0.00 | 44 | 1015.7 |
| 20260504025503 | 72 | 196 | 0.9 | 5.2 | 0.00 | 0.00 | 0.00 | 43 | 1015.7 |
| 20260504025003 | 73 | 195 | 0.9 | 5.2 | 0.00 | 0.00 | 0.00 | 43 | 1015.5 |
| 20260504024002 | 73 | 176 | 0.9 | 8.7 | 0.00 | 0.00 | 0.00 | 41 | 1015.6 |
| 20260504023503 | 74 | 184 | 1.7 | 8.7 | 0.00 | 0.00 | 0.00 | 41 | 1015.6 |
| 20260504023008 | 74 | 175 | 0.9 | 4.3 | 0.00 | 0.00 | 0.00 | 41 | 1015.6 |
| 20260504022504 | 74 | 171 | 0.9 | 6.1 | 0.00 | 0.00 | 0.00 | 40 | 1015.7 |
| 20260504022003 | 74 | 232 | 0.9 | 8.7 | 0.00 | 0.00 | 0.00 | 40 | 1015.6 |
| 20260504021506 | 74 | 187 | 2.6 | 7.8 | 0.00 | 0.00 | 0.00 | 40 | 1015.6 |
| 20260504021003 | 75 | 207 | 0.9 | 7.8 | 0.00 | 0.00 | 0.00 | 40 | 1015.5 |
| 20260504020503 | 75 | 186 | 0.9 | 7.8 | 0.00 | 0.00 | 0.00 | 40 | 1015.6 |
| 20260504020010 | 75 | 210 | 0.9 | 9.6 | 0.00 | 0.00 | 0.00 | 40 | 1015.6 |